TIANWANG 1B (TW-1B)
1 40927U 15051C   19191.50135144  .00007077  00000-0  10917-3 0  9990
2 40927  97.1364 236.9765 0006538 311.1708 154.5437 15.54437968213406
TIANWANG 1A (TW-1A)
1 40928U 15051D   19191.44744674  .00002157  00000-0  54469-4 0  9993
2 40928  97.1436 222.2697 0011068   3.9853 103.3217 15.40857953212525
LAPAN A2
1 40931U 15052B   19190.82778310  .00000604  00000-0 -50428-5 0  9991
2 40931   5.9983 265.8246 0013329  92.9756 267.2386 14.76608772204392
LQSAT
1 40958U 15057A   19191.16430837 -.00000038  00000-0  18098-5 0  9990
2 40958  97.8977 259.7805 0018482 168.1734 191.9912 14.73083113201965
CHUBUSAT 2
1 41338U 16012B   19191.51604182  .00000245  00000-0  12311-4 0  9990
2 41338  31.0042   6.0737 0013944 318.7914  41.1669 15.00156921186190
CHUBUSAT 3
1 41339U 16012C   19191.48298091  .00000200  00000-0  87390-5 0  9996
2 41339  31.0121   4.3511 0013827 326.4735  33.5024 15.00332114186186
OUFTI-1
1 41458U 16025C   19190.78605394  .00001034  00000-0  57080-4 0  9990
2 41458  98.1024 278.7015 0165058 286.3041  72.0086 15.05835357175746
E-STAR-2
1 41459U 16025D   19191.47215098 -.00000335  00000-0 -12177-4 0  9999
2 41459  98.1011 279.0724 0166294 285.3200  72.9741 15.05467799175820
AAUSAT 4
1 41460U 16025E   19191.48712023  .00000451  00000-0  27240-4 0  9996
2 41460  98.0936 280.3824 0156108 277.7339  80.6174 15.07361010175955
NUSAT 1
1 41557U 16033B   19191.53488205  .00001045  00000-0  41852-4 0  9995
2 41557  97.4182 278.9080 0012832 214.8965 145.1434 15.27239370173428
BEESAT 4
1 41619U 16040W   19191.12904862  .00000957  00000-0  43432-4 0  9996
2 41619  97.3662 252.9526 0009986 314.5615  45.4805 15.23156174157121
PRATHAM
1 41783U 16059A   19191.41693376  .00000031  00000-0  15363-4 0  9990
2 41783  98.0660 250.5179 0032537 317.4685  42.3997 14.62998605148723
ALSAT 1N
1 41789U 16059G   19191.52375150  .00000062  00000-0  20838-4 0  9992
2 41789  98.0684 252.6628 0027290 306.7419  53.1272 14.64248632148842
NAYIF 1
1 42017U 17008BX  19191.14635814  .00001075  00000-0  45181-4 0  9999
2 42017  97.4021 258.0190 0007982  93.6885 266.5266 15.25560313133190
MAX VALIER SAT
1 42778U 17036P   19190.76406294  .00000674  00000-0  32463-4 0  9992
2 42778  97.3530 247.9656 0013464 144.1497 216.0646 15.22034630113448
